| time (UTC) | temp F | wind direction | speed knots | gust knots | rain 1hr in | rain 24hr in | rain mn in | humidity % | barometer mb |
| 20260503013010 | 46 | 198 | 0.0 | 0.0 | 0.00 | 0.00 | 0.00 | 69 | 1016.1 |
| 20260503012009 | 46 | 198 | 0.0 | 0.0 | 0.00 | 0.00 | 0.00 | 68 | 1016.1 |
| 20260503011010 | 46 | 198 | 0.0 | 0.0 | 0.00 | 0.00 | 0.00 | 68 | 1016.1 |
| 20260503010010 | 46 | 198 | 0.0 | 1.7 | 0.00 | 0.00 | 0.00 | 68 | 1016.1 |
| 20260503005010 | 47 | 198 | 0.9 | 1.7 | 0.00 | 0.00 | 0.00 | 68 | 1016.1 |
| 20260503004010 | 47 | 198 | 0.9 | 1.7 | 0.00 | 0.00 | 0.00 | 68 | 1016.2 |
| 20260503003010 | 47 | 198 | 0.9 | 1.7 | 0.00 | 0.00 | 0.00 | 68 | 1016.2 |
| 20260503002009 | 47 | 198 | 0.0 | 0.9 | 0.00 | 0.00 | 0.00 | 69 | 1016.3 |
| 20260503001009 | 47 | 198 | 0.0 | 0.0 | 0.00 | 0.00 | 0.00 | 67 | 1016.3 |
| 20260503000010 | 47 | 198 | 0.0 | 0.9 | 0.00 | 0.00 | 0.00 | 66 | 1016.4 |
| 20260502235009 | 48 | 198 | 0.0 | 0.0 | 0.00 | 0.00 | 0.00 | 66 | 1016.3 |
| 20260502234009 | 48 | 198 | 0.0 | 0.0 | 0.00 | 0.00 | 0.00 | 66 | 1016.4 |
| 20260502233010 | 48 | 198 | 0.0 | 0.0 | 0.00 | 0.00 | 0.00 | 65 | 1016.5 |
| 20260502232008 | 49 | 198 | 0.9 | 1.7 | 0.00 | 0.00 | 0.00 | 65 | 1016.6 |
| 20260502231010 | 49 | 198 | 0.9 | 1.7 | 0.00 | 0.00 | 0.00 | 65 | 1016.6 |
| 20260502230008 | 50 | 198 | 0.0 | 0.9 | 0.00 | 0.00 | 0.00 | 63 | 1016.8 |
| 20260502225008 | 50 | 198 | 0.0 | 0.0 | 0.00 | 0.00 | 0.00 | 62 | 1016.8 |
| 20260502224008 | 51 | 198 | 0.0 | 0.0 | 0.00 | 0.00 | 0.00 | 62 | 1016.9 |
| 20260502222013 | 51 | 198 | 0.0 | 0.9 | 0.00 | 0.00 | 0.00 | 61 | 1016.8 |
| 20260502221013 | 52 | 198 | 0.0 | 0.9 | 0.00 | 0.00 | 0.00 | 60 | 1016.9 |
| 20260502220013 | 52 | 198 | 0.9 | 2.6 | 0.00 | 0.00 | 0.00 | 58 | 1016.9 |
| 20260502215013 | 53 | 198 | 1.7 | 2.6 | 0.00 | 0.00 | 0.00 | 58 | 1017.0 |
| 20260502214013 | 53 | 198 | 0.9 | 2.6 | 0.00 | 0.00 | 0.00 | 59 | 1017.0 |
| 20260502213013 | 54 | 198 | 0.0 | 0.9 | 0.00 | 0.00 | 0.00 | 57 | 1016.9 |
| 20260502212013 | 54 | 198 | 0.0 | 0.9 | 0.00 | 0.00 | 0.00 | 56 | 1017.0 |
| 20260502211013 | 55 | 198 | 0.9 | 1.7 | 0.00 | 0.00 | 0.00 | 55 | 1017.0 |
| 20260502210012 | 55 | 198 | 0.0 | 0.0 | 0.00 | 0.00 | 0.00 | 53 | 1017.0 |
| 20260502205012 | 56 | 198 | 0.9 | 2.6 | 0.00 | 0.00 | 0.00 | 52 | 1017.0 |
| 20260502204012 | 57 | 198 | 0.9 | 2.6 | 0.00 | 0.00 | 0.00 | 52 | 1016.9 |
| 20260502203013 | 57 | 198 | 1.7 | 2.6 | 0.00 | 0.00 | 0.00 | 52 | 1016.9 |
| 20260502202012 | 58 | 198 | 1.7 | 3.5 | 0.00 | 0.00 | 0.00 | 52 | 1017.0 |
| 20260502201012 | 58 | 197 | 2.6 | 3.5 | 0.00 | 0.00 | 0.00 | 52 | 1017.0 |
| 20260502195012 | 60 | 196 | 0.9 | 1.7 | 0.00 | 0.00 | 0.00 | 51 | 1017.0 |
| 20260502194012 | 61 | 196 | 1.7 | 3.5 | 0.00 | 0.00 | 0.00 | 51 | 1017.0 |
| 20260502193012 | 62 | 189 | 0.0 | 0.0 | 0.00 | 0.00 | 0.00 | 51 | 1017.0 |
| 20260502192012 | 63 | 189 | 0.0 | 0.0 | 0.00 | 0.00 | 0.00 | 50 | 1016.9 |
| 20260502191012 | 65 | 189 | 0.0 | 0.0 | 0.00 | 0.00 | 0.00 | 48 | 1016.8 |
| 20260502190012 | 66 | 189 | 0.0 | 0.0 | 0.00 | 0.00 | 0.00 | 46 | 1016.8 |
| 20260502185012 | 68 | 189 | 0.0 | 0.0 | 0.00 | 0.00 | 0.00 | 44 | 1016.9 |
| 20260502184012 | 69 | 189 | 0.0 | 1.7 | 0.00 | 0.00 | 0.00 | 37 | 1016.8 |
| 20260502183012 | 70 | 189 | 0.0 | 1.7 | 0.00 | 0.00 | 0.00 | 35 | 1016.7 |
| 20260502182012 | 71 | 189 | 0.0 | 0.9 | 0.00 | 0.00 | 0.00 | 32 | 1016.7 |
| 20260502181012 | 73 | 189 | 0.9 | 2.6 | 0.00 | 0.00 | 0.00 | 30 | 1016.7 |
| 20260502164011 | 77 | 158 | 1.7 | 5.2 | 0.00 | 0.00 | 0.00 | 27 | 1017.0 |
| 20260502163011 | 77 | 181 | 1.7 | 3.5 | 0.00 | 0.00 | 0.00 | 26 | 1017.1 |
| 20260502162011 | 78 | 180 | 1.7 | 4.3 | 0.00 | 0.00 | 0.00 | 27 | 1017.2 |
| 20260502161011 | 79 | 219 | 0.9 | 5.2 | 0.00 | 0.00 | 0.00 | 25 | 1017.3 |
| 20260502152011 | 81 | 186 | 1.7 | 6.1 | 0.00 | 0.00 | 0.00 | 22 | 1017.8 |
| 20260502151012 | 81 | 146 | 2.6 | 7.0 | 0.00 | 0.00 | 0.00 | 22 | 1018.0 |
| 20260502123009 | 79 | 86 | 2.6 | 7.0 | 0.00 | 0.00 | 0.00 | 28 | 1020.2 |
| 20260502122010 | 79 | 86 | 2.6 | 7.0 | 0.00 | 0.00 | 0.00 | 28 | 1020.2 |
| 20260502121011 | 79 | 151 | 4.3 | 9.6 | 0.00 | 0.00 | 0.00 | 32 | 1020.4 |
| 20260502115009 | 78 | 142 | 5.2 | 10.4 | 0.00 | 0.00 | 0.00 | 32 | 1020.8 |
| 20260502114011 | 78 | 142 | 6.1 | 10.4 | 0.00 | 0.00 | 0.00 | 32 | 1020.8 |
| 20260502113009 | 78 | 113 | 4.3 | 9.6 | 0.00 | 0.00 | 0.00 | 28 | 1021.1 |
| 20260502112018 | 78 | 113 | 5.2 | 9.6 | 0.00 | 0.00 | 0.00 | 28 | 1021.1 |
| 20260502111010 | 77 | 79 | 4.3 | 11.3 | 0.00 | 0.00 | 0.00 | 27 | 1021.2 |
| 20260502110009 | 77 | 95 | 4.3 | 9.6 | 0.00 | 0.00 | 0.00 | 29 | 1021.3 |
| 20260502105009 | 76 | 104 | 3.5 | 9.6 | 0.00 | 0.00 | 0.00 | 31 | 1021.5 |
| 20260502104014 | 76 | 104 | 3.5 | 9.6 | 0.00 | 0.00 | 0.00 | 31 | 1021.5 |
| 20260502103014 | 76 | 161 | 3.5 | 9.6 | 0.00 | 0.00 | 0.00 | 31 | 1021.6 |
| 20260502102014 | 76 | 129 | 3.5 | 7.8 | 0.00 | 0.00 | 0.00 | 32 | 1021.9 |
| 20260502101014 | 75 | 119 | 3.5 | 7.8 | 0.00 | 0.00 | 0.00 | 34 | 1022.1 |
| 20260502091013 | 71 | 130 | 5.2 | 13.0 | 0.00 | 0.00 | 0.00 | 40 | 1023.0 |
| 20260502071013 | 56 | 117 | 1.7 | 5.2 | 0.00 | 0.00 | 0.00 | 55 | 1024.0 |
| 20260502070013 | 54 | 117 | 1.7 | 5.2 | 0.00 | 0.00 | 0.00 | 59 | 1023.9 |
| 20260502065013 | 53 | 119 | 2.6 | 4.3 | 0.00 | 0.00 | 0.00 | 61 | 1023.9 |
| 20260502064013 | 51 | 134 | 2.6 | 6.1 | 0.00 | 0.00 | 0.00 | 62 | 1024.1 |
| 20260502063013 | 49 | 178 | 1.7 | 3.5 | 0.00 | 0.00 | 0.00 | 65 | 1024.2 |
| 20260502062013 | 47 | 244 | 0.9 | 2.6 | 0.00 | 0.00 | 0.00 | 69 | 1024.1 |
| 20260502061013 | 45 | 246 | 0.9 | 1.7 | 0.00 | 0.00 | 0.00 | 72 | 1024.1 |
| 20260502060013 | 44 | 246 | 0.0 | 1.7 | 0.00 | 0.00 | 0.00 | 72 | 1024.1 |
| 20260502055013 | 44 | 246 | 0.0 | 0.9 | 0.00 | 0.00 | 0.00 | 74 | 1024.2 |
| 20260502054012 | 42 | 246 | 0.0 | 1.7 | 0.00 | 0.00 | 0.00 | 80 | 1024.4 |
| 20260502053012 | 41 | 246 | 0.0 | 0.0 | 0.00 | 0.00 | 0.00 | 83 | 1024.3 |
| 20260502052012 | 40 | 246 | 0.0 | 0.0 | 0.00 | 0.00 | 0.00 | 83 | 1024.3 |
| 20260502051012 | 40 | 246 | 0.0 | 0.0 | 0.00 | 0.00 | 0.00 | 83 | 1024.2 |
| 20260502050013 | 40 | 246 | 0.0 | 0.9 | 0.00 | 0.00 | 0.00 | 83 | 1024.3 |
| 20260502045012 | 39 | 246 | 0.0 | 1.7 | 0.00 | 0.00 | 0.00 | 83 | 1024.3 |
| 20260502044012 | 39 | 246 | 0.0 | 1.7 | 0.00 | 0.00 | 0.00 | 80 | 1024.3 |
| 20260502043012 | 39 | 246 | 0.9 | 1.7 | 0.00 | 0.00 | 0.00 | 78 | 1024.3 |
| 20260502042012 | 39 | 246 | 1.7 | 1.7 | 0.00 | 0.00 | 0.00 | 78 | 1024.3 |
| 20260502041012 | 39 | 246 | 1.7 | 2.6 | 0.00 | 0.00 | 0.00 | 77 | 1024.3 |
| 20260502040012 | 39 | 246 | 0.9 | 2.6 | 0.00 | 0.00 | 0.00 | 77 | 1024.3 |
| 20260502035012 | 39 | 246 | 0.9 | 1.7 | 0.00 | 0.00 | 0.00 | 76 | 1024.3 |
| 20260502034012 | 39 | 246 | 0.9 | 2.6 | 0.00 | 0.00 | 0.00 | 76 | 1024.3 |
| 20260502033012 | 40 | 246 | 0.0 | 1.7 | 0.00 | 0.00 | 0.00 | 75 | 1024.4 |
| 20260502032012 | 40 | 151 | 1.7 | 2.6 | 0.00 | 0.00 | 0.00 | 74 | 1024.4 |
| 20260502031012 | 40 | 152 | 0.0 | 1.7 | 0.00 | 0.00 | 0.00 | 74 | 1024.5 |
| 20260502030012 | 40 | 151 | 0.0 | 1.7 | 0.00 | 0.00 | 0.00 | 73 | 1024.4 |
| 20260502025012 | 41 | 151 | 0.9 | 1.7 | 0.00 | 0.00 | 0.00 | 73 | 1024.5 |
| 20260502024012 | 41 | 151 | 0.9 | 2.6 | 0.00 | 0.00 | 0.00 | 73 | 1024.6 |
| 20260502023011 | 41 | 151 | 1.7 | 2.6 | 0.00 | 0.00 | 0.00 | 73 | 1024.7 |
| 20260502022012 | 41 | 148 | 1.7 | 3.5 | 0.00 | 0.00 | 0.00 | 74 | 1024.7 |
| 20260502021012 | 41 | 123 | 0.9 | 2.6 | 0.00 | 0.00 | 0.00 | 74 | 1024.7 |
| 20260502020011 | 42 | 122 | 1.7 | 2.6 | 0.00 | 0.00 | 0.00 | 74 | 1024.8 |
| 20260502015012 | 42 | 121 | 0.9 | 1.7 | 0.00 | 0.00 | 0.00 | 74 | 1024.8 |
| 20260502014011 | 42 | 121 | 0.0 | 0.9 | 0.00 | 0.00 | 0.00 | 72 | 1024.9 |